This is the latest recevied weather packets stored in our database for station/object EB2EMZ-3. If no packets are shown the sender has not sent any weather packets the latest 10 day(s).
| Time | Temp. | Humidity | Pressure | Rain* | Wind** | Luminosity | Snow |
|---|---|---|---|---|---|---|---|
| 1777626893 | 21.67° C | 64% | 1020.8 hPa | 0 mm | - | - | - |
| 1777626593 | 21.11° C | 64% | 1021 hPa | 0 mm | - | - | - |
| 1777626293 | 21.11° C | 64% | 1020.7 hPa | 0 mm | - | - | - |
| 1777625993 | 21.11° C | 64% | 1020.8 hPa | 0 mm | - | - | - |
| 1777625693 | 21.11° C | 64% | 1020.8 hPa | 0 mm | - | - | - |
| 1777625393 | 21.11° C | 65% | 1020.7 hPa | 0 mm | - | - | - |
| 1777625093 | 21.11° C | 64% | 1020.7 hPa | 0 mm | - | - | - |
| 1777624793 | 20.56° C | 65% | 1020.8 hPa | 0 mm | - | - | - |
| 1777624493 | 20.56° C | 65% | 1020.7 hPa | 0 mm | - | - | - |
| 1777624193 | 21.11° C | 65% | 1020.7 hPa | 0 mm | - | - | - |
| 1777623893 | 20.56° C | 65% | 1020.7 hPa | 0 mm | - | - | - |
| 1777623593 | 20.56° C | 66% | 1020.6 hPa | 0 mm | - | - | - |
| 1777623293 | 20.56° C | 66% | 1020.6 hPa | 0 mm | - | - | - |
| 1777622993 | 20.56° C | 66% | 1020.6 hPa | 0 mm | - | - | - |
| 1777622693 | 20.56° C | 68% | 1020.6 hPa | 0 mm | - | - | - |
| 1777622393 | 20.56° C | 68% | 1020.5 hPa | 0 mm | - | - | - |
| 1777622093 | 20.56° C | 68% | 1020.4 hPa | 0 mm | - | - | - |
| 1777621793 | 20° C | 67% | 1020.4 hPa | 0 mm | - | - | - |
| 1777621493 | 20° C | 67% | 1020.4 hPa | 0 mm | - | - | - |
| 1777621193 | 20.56° C | 67% | 1020.4 hPa | 0 mm | - | - | - |
| 1777620893 | 20.56° C | 68% | 1020.3 hPa | 0 mm | - | - | - |
| 1777620593 | 20° C | 70% | 1020.2 hPa | 0 mm | - | - | - |
| 1777620293 | 20° C | 70% | 1020.3 hPa | 0 mm | - | - | - |
| 1777619993 | 20° C | 71% | 1020.3 hPa | 0 mm | - | - | - |
| 1777619693 | 20° C | 72% | 1020.3 hPa | 0 mm | - | - | - |
* Rain latest hour (hover to see other rain measurements)
** Current wind speed in m/s (hover to see current wind gust speed)